Flag for Germany Weather past 2 weeks in Hanau, Hesse, Germany

Now
75 °F

Broken clouds.


Feels Like: 77 °F
Forecast: 60 / 82 °F
Wind: 7 mph from East

Location: Frankfurt-M-Flughafen Airport

Current Time: Jul 26, 2014 at 5:46:07 PM

Latest Report: Jul 26, 2014 at 5:20 PM


Visibility: N/A

Pressure: 29.89 "Hg

Humidity: 61%

Dew point: 61 °F

Location of HanauLocation

Historic Weather in Hanau — Graph

°F

Hanau temperature yesterday

Maximum temperature yesterday: 77 °F (at 2:20 PM)
Minimum temperature yesterday: 61 °F (at 3:20 AM)
Average temperature yesterday: 69 °F

Past Weeks' High & Low Weather Summary

 TemperatureHumidityPressure
High93 °F (Jul 19, 4:20 PM)100% (Jul 11, 7:50 PM)30.18 "Hg (Jul 11, 7:50 PM)
Low59 °F (Jul 17, 4:50 AM)23% (Jul 18, 6:20 PM)29.77 "Hg (Jul 13, 4:20 PM)
Average72 °F67%29.96 "Hg
* Reported Jul 11 4:20 PM — Jul 26 4:50 PM, Hanau, Weather by CustomWeather, © 2014

Note: Actual official high and low records may vary slightly from our data, if they occured in-between our weather recording intervals... More about our weather records

Advertising

Hanau weather history for previous 24 hours

 ConditionsComfort  
Time TempWeatherWind HumidityBarometerVisibility
4:50 PM
Jul 26
70 °FSprinkles. Broken clouds.10 mph78%29.92 "HgN/A
4:20 PM66 °FStrong thunderstorms. Broken clouds.20 mph83%29.92 "Hg1 mi
3:50 PM79 °FRain showers. Partly sunny.5 mph51%29.89 "HgN/A
3:20 PM81 °FBroken clouds.3 mph45%29.89 "HgN/A
2:50 PM81 °FBroken clouds.6 mph45%29.89 "HgN/A
2:20 PM81 °FBroken clouds.2 mph48%29.89 "HgN/A
1:50 PM81 °FBroken clouds.3 mph48%29.89 "HgN/A
1:20 PM81 °FPartly sunny.6 mph48%29.92 "HgN/A
12:50 PM79 °FPartly sunny.2 mph51%29.92 "HgN/A
12:20 PM77 °FPartly sunny.1 mph57%29.92 "HgN/A
11:50 AM77 °FPartly sunny.5 mph61%29.92 "HgN/A
11:20 AM75 °FScattered clouds.2 mph61%29.92 "HgN/A
10:50 AM75 °FScattered clouds.2 mph65%29.92 "HgN/A
10:20 AM72 °FPassing clouds.2 mph69%29.92 "HgN/A
9:50 AM70 °FPassing clouds.6 mph73%29.92 "HgN/A
9:20 AM70 °FBroken clouds.2 mph73%29.92 "HgN/A
8:50 AM68 °FSunny.1 mph83%29.92 "Hg10 mi
8:20 AM66 °FSunny.2 mph88%29.92 "Hg10 mi
7:50 AM64 °FSunny.2 mph88%29.89 "Hg10 mi
7:20 AM63 °FSunny.1 mph94%29.89 "Hg10 mi
6:50 AM61 °FSunny.1 mph94%29.89 "Hg10 mi
6:20 AM61 °FClear.3 mph94%29.89 "Hg10 mi
5:50 AM61 °FClear.2 mph94%29.89 "Hg10 mi
5:20 AM61 °FClear.2 mph94%29.89 "Hg10 mi
4:50 AM59 °FClear.2 mph94%29.89 "Hg10 mi
4:20 AM59 °FClear.2 mph100%29.89 "Hg10 mi
3:50 AM61 °FClear.2 mph94%29.89 "Hg10 mi
3:20 AM61 °FClear.2 mph94%29.89 "Hg10 mi
2:50 AM61 °FClear.2 mph94%29.89 "Hg10 mi
2:20 AM63 °FClear.3 mph88%29.89 "Hg10 mi
1:50 AM64 °FClear.3 mph83%29.89 "Hg10 mi
1:20 AM66 °FClear.6 mph78%29.89 "Hg10 mi
12:50 AM64 °FClear.5 mph83%29.89 "Hg10 mi
12:20 AM66 °FClear.5 mph78%29.89 "Hg10 mi
11:50 PM
Jul 25
66 °FClear.2 mph78%29.89 "Hg10 mi
11:20 PM66 °FClear.3 mph78%29.89 "Hg10 mi
10:50 PM68 °FPartly cloudy.1 mph73%29.89 "HgN/A
10:20 PM70 °FPassing clouds.1 mph69%29.89 "HgN/A
9:50 PM72 °FPartly sunny.6 mph65%29.89 "HgN/A
9:20 PM72 °FPartly sunny.3 mph65%29.86 "HgN/A
8:50 PM73 °FPartly sunny.6 mph61%29.86 "HgN/A
8:20 PM73 °FPartly sunny.5 mph61%29.89 "HgN/A
7:50 PM73 °FPartly sunny.5 mph61%29.89 "HgN/A
7:20 PM73 °FPartly sunny.6 mph61%29.89 "HgN/A
6:50 PM72 °FScattered clouds.8 mph65%29.86 "HgN/A
6:20 PM73 °FScattered clouds.13 mph61%29.86 "HgN/A
5:50 PM73 °FThundershowers. Scattered clouds.14 mph61%29.86 "HgN/A
5:20 PM77 °FThundershowers. Broken clouds.3 mph51%29.89 "HgN/A
Weather by CustomWeather, © 2014

See weather overviewHow to use our weather pages